H1 CPF 2 NER 2020 12 10 9 345 01 glonass141 H2 1908801 9141 44850 2020 12 10 0 0 0 2020 12 13 23 45 0 900 1 1 0 0 0 1 H9 10 0 59193 0.00000 0 14502112.563 19436701.518 -7907217.268 10 0 59193 900.00000 0 15026702.560 20043898.281 -4815299.809 10 0 59193 1800.00000 0 15379760.144 20289821.663 -1629849.543 10 0 59193 2700.00000 0 15509995.087 20196771.030 1587252.730 10 0 59193 3600.00000 0 15373176.163 19798458.704 4773544.962 10 0 59193 4500.00000 0 14934191.538 19138429.073 7867196.876 10 0 59193 5400.00000 0 14168736.519 18268083.334 10808208.026 10 0 59193 6300.00000 0 13064557.315 17244393.904 13539567.672 10 0 59193 7200.00000 0 11622198.446 16127405.375 16008354.077 10 0 59193 8100.00000 0 9855222.204 14977627.403 18166752.482 10 0 59193 9000.00000 0 7789890.587 13853428.981 19972972.782 10 0 59193 9900.00000 0 5464322.530 12808543.081 21392049.967 10 0 59193 10800.00000 0 2927160.769 11889785.632 22396512.904 10 0 59193 11700.00000 0 235802.794 11135083.595 22966909.506 10 0 59193 12600.00000 0 -2545731.768 10571893.838 23092178.940 10 0 59193 13500.00000 0 -5349210.288 10216078.229 22769864.323 10 0 59193 14400.00000 0 -8104774.431 10071281.419 22006162.066 10 0 59193 15300.00000 0 -10743599.880 10128837.072 20815806.807 10 0 59193 16200.00000 0 -13200519.666 10368206.448 19221793.741 10 0 59193 17100.00000 0 -15416503.655 10757931.242 17254942.851 10 0 59193 18000.00000 0 -17340892.148 11257061.209 14953312.534 10 0 59193 18900.00000 0 -18933291.484 11816997.264 12361472.753 10 0 59193 19800.00000 0 -20165053.138 12383673.162 9529650.655 10 0 59193 20700.00000 0 -21020274.629 12899984.392 6512764.219 10 0 59193 21600.00000 0 -21496280.382 13308362.128 3369361.891 10 0 59193 22500.00000 0 -21603562.149 13553383.498 160488.278 10 0 59193 23400.00000 0 -21365181.235 13584307.426 -3051502.095 10 0 59193 24300.00000 0 -20815657.485 13357427.984 -6204159.736 10 0 59193 25200.00000 0 -19999391.741 12838144.534 -9236159.703 10 0 59193 26100.00000 0 -18968688.332 12002659.673 -12088501.195 10 0 59193 27000.00000 0 -17781461.306 10839231.553 -14705663.051 10 0 59193 27900.00000 0 -16498721.559 9348925.959 -17036691.873 10 0 59193 28800.00000 0 -15181951.415 7545834.738 -19036200.776 10 0 59193 29700.00000 0 -13890477.943 5456749.778 -20665258.761 10 0 59193 30600.00000 0 -12678956.201 3120304.730 -21892153.019 10 0 59193 31500.00000 0 -11595068.903 585619.386 -22693009.041 10 0 59193 32400.00000 0 -10677539.534 -2089497.597 -23052256.494 10 0 59193 33300.00000 0 -9954542.555 -4840713.195 -22962931.844 10 0 59193 34200.00000 0 -9442577.362 -7599611.876 -22426812.016 10 0 59193 35100.00000 0 -9145852.892 -10296313.384 -21454376.723 10 0 59193 36000.00000 0 -9056208.097 -12862157.655 -20064600.403 10 0 59193 36900.00000 0 -9153570.799 -15232345.208 -18284578.060 10 0 59193 37800.00000 0 -9406934.633 -17348423.306 -16148992.508 10 0 59193 38700.00000 0 -9775811.876 -19160514.725 -13699433.587 10 0 59193 39600.00000 0 -10212099.856 -20629196.646 -10983582.933 10 0 59193 40500.00000 0 -10662281.173 -21726952.052 -8054280.481 10 0 59193 41400.00000 0 -11069863.842 -22439133.979 -4968491.216 10 0 59193 42300.00000 0 -11377957.487 -22764403.450 -1786192.850 10 0 59193 43200.00000 0 -11531875.971 -22714624.165 1430793.529 10 0 59193 44100.00000 0 -11481655.965 -22314219.844 4620006.597 10 0 59193 45000.00000 0 -11184384.656 -21599022.656 7719557.910 10 0 59193 45900.00000 0 -10606238.065 -20614662.491 10669331.205 10 0 59193 46800.00000 0 -9724143.809 -19414565.854 13412144.592 10 0 59193 47700.00000 0 -8526998.171 -18057649.259 15894853.263 10 0 59193 48600.00000 0 -7016386.065 -16605804.412 18069371.839 10 0 59193 49500.00000 0 -5206773.348 -15121280.712 19893597.311 10 0 59193 50400.00000 0 -3125162.940 -13664074.465 21332215.555 10 0 59193 51300.00000 0 -810228.333 -12289433.480 22357376.846 10 0 59193 52200.00000 0 1689040.412 -11045580.517 22949228.306 10 0 59193 53100.00000 0 4315123.033 -9971749.797 23096293.801 10 0 59193 54000.00000 0 7004115.038 -9096617.556 22795694.587 10 0 59193 54900.00000 0 9688145.800 -8437191.301 22053206.727 10 0 59193 55800.00000 0 12297969.967 -7998203.490 20883154.069 10 0 59193 56700.00000 0 14765626.251 -7772034.524 19308138.433 10 0 59193 57600.00000 0 17027054.627 -7739168.094 17358611.413 10 0 59193 58500.00000 0 19024564.197 -7869159.909 15072295.086 10 0 59193 59400.00000 0 20709049.915 -8122079.422 12493461.703 10 0 59193 60300.00000 0 22041866.223 -8450364.312 9672085.097 10 0 59193 61200.00000 0 22996279.468 -8801010.031 6662879.325 10 0 59193 62100.00000 0 23558438.205 -9118002.272 3524242.377 10 0 59193 63000.00000 0 23727820.398 -9344889.648 317124.914 10 0 59193 63900.00000 0 23517138.270 -9427387.487 -2896153.993 10 0 59193 64800.00000 0 22951704.358 -9315901.917 -6053120.980 10 0 59193 65700.00000 0 22068285.123 -8967866.370 -9092368.257 10 0 59193 66600.00000 0 20913490.151 -8349790.348 -11954754.714 10 0 59193 67500.00000 0 19541764.847 -7438932.183 -14584564.113 10 0 59193 68400.00000 0 18013071.348 -6224523.404 -16930597.019 10 0 59193 69300.00000 0 16390355.699 -4708491.309 -18947174.371 10 0 59193 70200.00000 0 14736908.366 -2905647.574 -20595032.626 10 0 59193 71100.00000 0 13113729.554 -843333.354 -21842092.614 10 0 59193 72000.00000 0 11577010.530 1439465.517 -22664086.872 10 0 59193 72900.00000 0 10175836.975 3893497.332 -23045033.242 10 0 59193 73800.00000 0 8950210.783 6461060.531 -22977545.578 10 0 59193 74700.00000 0 7929473.150 9078181.639 -22462975.684 10 0 59193 75600.00000 0 7131194.590 11677064.686 -21511383.948 10 0 59193 76500.00000 0 6560577.651 14188710.276 -20141339.468 10 0 59193 77400.00000 0 6210396.444 16545595.190 -18379553.778 10 0 59193 78300.00000 0 6061474.290 18684301.029 -16260355.548 10 0 59193 79200.00000 0 6083678.043 20547982.439 -13825016.670 10 0 59193 80100.00000 0 6237385.891 22088572.161 -11120943.177 10 0 59193 81000.00000 0 6475365.328 23268631.318 -8200747.064 10 0 59193 81900.00000 0 6744980.811 24062768.213 -5121217.425 10 0 59193 82800.00000 0 6990636.688 24458567.119 -1942211.487 10 0 59193 83700.00000 0 7156351.207 24456989.234 1274512.445 10 0 59193 84600.00000 0 7188351.996 24072230.198 4466496.988 10 0 59193 85500.00000 0 7037582.765 23331041.382 7571798.779 10 0 59194 0.00000 0 6662014.988 22271544.732 10530188.855 10 0 59194 900.00000 0 6028666.276 20941591.798 13284317.357 10 0 59194 1800.00000 0 5115241.503 19396736.975 15780819.228 10 0 59194 2700.00000 0 3911325.220 17697910.053 17971341.106 10 0 59194 3600.00000 0 2419077.243 15908885.937 19813469.485 10 0 59194 4500.00000 0 653400.352 14093657.159 21271543.243 10 0 59194 5400.00000 0 -1358426.968 12313818.411 22317335.874 10 0 59194 6300.00000 0 -3577638.503 10626071.426 22930595.172 10 0 59194 7200.00000 0 -5955353.082 9079953.312 23099430.773 10 0 59194 8100.00000 0 -8434376.434 7715881.881 22820542.715 10 0 59194 9000.00000 0 -10951358.810 6563598.332 22099286.865 10 0 59194 9900.00000 0 -13439220.264 5641071.277 20949575.923 10 0 59194 10800.00000 0 -15829744.493 4953907.010 19393617.458 10 0 59194 11700.00000 0 -18056234.889 4495290.100 17461493.278 10 0 59194 12600.00000 0 -20056123.485 4246456.520 15190587.291 10 0 59194 13500.00000 0 -21773425.063 4177679.400 12624871.765 10 0 59194 14400.00000 0 -23160934.617 4249726.101 9814064.653 10 0 59194 15300.00000 0 -24182076.443 4415725.482 6812673.311 10 0 59194 16200.00000 0 -24812327.352 4623366.784 3678942.367 10 0 59194 17100.00000 0 -25040153.869 4817337.279 473725.591 10 0 59194 18000.00000 0 -24867423.406 4941895.379 -2740696.340 10 0 59194 18900.00000 0 -24309271.477 4943469.822 -5901829.096 10 0 59194 19800.00000 0 -23393429.861 4773173.965 -8948184.882 10 0 59194 20700.00000 0 -22159043.471 4389127.656 -11820485.038 10 0 59194 21600.00000 0 -20655025.443 3758486.914 -14462820.887 10 0 59194 22500.00000 0 -18938019.521 2859094.028 -16823749.401 10 0 59194 23400.00000 0 -17070055.635 1680676.658 -18857301.548 10 0 59194 24300.00000 0 -15115997.437 225543.708 -20523883.111 10 0 59194 25200.00000 0 -13140889.349 -1491253.020 -21791050.039 10 0 59194 26100.00000 0 -11207314.801 -3442299.544 -22634142.962 10 0 59194 27000.00000 0 -9372876.655 -5588728.092 -23036768.488 10 0 59194 27900.00000 0 -7687905.389 -7881616.143 -22991118.002 10 0 59194 28800.00000 0 -6193490.896 -10263818.251 -22498117.903 10 0 59194 29700.00000 0 -4919919.777 -12672154.647 -21567408.582 10 0 59194 30600.00000 0 -3885582.786 -15039865.557 -20217152.763 10 0 59194 31500.00000 0 -3096397.190 -17299228.866 -18473677.182 10 0 59194 32400.00000 0 -2545766.896 -19384231.953 -16370954.783 10 0 59194 33300.00000 0 -2215080.525 -21233186.210 -13949937.729 10 0 59194 34200.00000 0 -2074724.891 -22791175.025 -11257754.534 10 0 59194 35100.00000 0 -2085569.576 -24012233.111 -8346787.242 10 0 59194 36000.00000 0 -2200858.410 -24861166.358 -5273646.998 10 0 59194 36900.00000 0 -2368426.600 -25314936.477 -2098068.462 10 0 59194 37800.00000 0 -2533148.600 -25363553.166 1118254.956 10 0 59194 38700.00000 0 -2639512.173 -25010437.241 4312871.936 10 0 59194 39600.00000 0 -2634209.119 -24272240.494 7423786.364 10 0 59194 40500.00000 0 -2468632.579 -23178130.847 10390658.907 10 0 59194 41400.00000 0 -2101175.098 -21768573.715 13155973.743 10 0 59194 42300.00000 0 -1499230.310 -20093661.426 15666147.894 10 0 59194 43200.00000 0 -640813.761 -18211061.212 17872562.212 10 0 59194 44100.00000 0 484265.485 -16183667.751 19732494.737 10 0 59194 45000.00000 0 1873731.897 -14077058.267 21209939.224 10 0 59194 45900.00000 0 3512697.856 -11956855.839 22276294.004 10 0 59194 46800.00000 0 5374052.219 -9886110.030 22910908.880 10 0 59194 47700.00000 0 7419367.776 -7922802.884 23101480.280 10 0 59194 48600.00000 0 9600291.032 -6117582.896 22844287.708 10 0 59194 49500.00000 0 11860357.961 -4511819.954 22144267.216 10 0 59194 50400.00000 0 14137161.634 -3136061.088 21014920.409 10 0 59194 51300.00000 0 16364783.198 -2008950.263 19478060.362 10 0 59194 52200.00000 0 18476386.542 -1136656.398 17563398.561 10 0 59194 53100.00000 0 20406869.811 -512832.941 15307979.899 10 0 59194 54000.00000 0 22095464.235 -119110.308 12755475.520 10 0 59194 54900.00000 0 23488172.402 73899.654 9955346.015 10 0 59194 55800.00000 0 24539944.188 105129.379 6961890.232 10 0 59194 56700.00000 0 25216499.051 21173.596 3833197.285 10 0 59194 57600.00000 0 25495717.779 -125920.929 630021.609 10 0 59194 58500.00000 0 25368544.433 -281100.302 -2585397.214 10 0 59194 59400.00000 0 24839359.718 -388879.231 -5750546.743 10 0 59194 60300.00000 0 23925809.112 -395937.768 -8803862.096 10 0 59194 61200.00000 0 22658092.174 -253628.183 -11685929.951 10 0 59194 62100.00000 0 21077742.263 79715.453 -14340651.962 10 0 59194 63000.00000 0 19235947.520 636764.120 -16716344.112 10 0 59194 63900.00000 0 17191483.515 1439563.786 -18766749.795 10 0 59194 64800.00000 0 15008344.335 2498358.856 -20451946.305 10 0 59194 65700.00000 0 12753171.640 3810920.285 -21739126.684 10 0 59194 66600.00000 0 10492589.661 5362408.038 -22603241.390 10 0 59194 67500.00000 0 8290557.866 7125774.938 -23027487.299 10 0 59194 68400.00000 0 6205852.096 9062696.003 -23003634.535 10 0 59194 69300.00000 0 4289779.367 11124985.070 -22532184.969 10 0 59194 70200.00000 0 2584221.429 13256439.976 -21622359.505 10 0 59194 71100.00000 0 1120088.125 15395039.458 -20291914.609 10 0 59194 72000.00000 0 -83755.719 17475400.012 -18566791.898 10 0 59194 72900.00000 0 -1021046.317 19431390.009 -16480607.845 10 0 59194 73800.00000 0 -1698138.099 21198791.727 -14073993.708 10 0 59194 74700.00000 0 -2133483.023 22717899.758 -11393798.889 10 0 59194 75600.00000 0 -2356595.747 23935947.057 -8492173.503 10 0 59194 76500.00000 0 -2406550.032 24809257.059 -5425548.408 10 0 59194 77400.00000 0 -2330071.450 25305031.851 -2253533.058 10 0 59194 78300.00000 0 -2179308.454 25402701.813 962246.910 10 0 59194 79200.00000 0 -2009377.255 25094780.666 4159349.301 10 0 59194 80100.00000 0 -1875785.268 24387190.684 7275728.395 10 0 59194 81000.00000 0 -1831842.756 23299045.234 10250937.600 10 0 59194 81900.00000 0 -1926172.487 21861898.418 13027298.356 10 0 59194 82800.00000 0 -2200422.746 20118493.962 15551012.729 10 0 59194 83700.00000 0 -2687280.222 18121066.100 17773198.624 10 0 59194 84600.00000 0 -3408866.499 15929263.639 19650828.288 10 0 59194 85500.00000 0 -4375585.584 13607783.772 21147552.751 10 0 59195 0.00000 0 -5585471.024 11223813.788 22234397.284 10 0 59195 900.00000 0 -7024060.833 8844386.329 22890315.486 10 0 59195 1800.00000 0 -8664804.954 6533757.155 23102591.921 10 0 59195 2700.00000 0 -10469991.117 4350913.563 22867086.430 10 0 59195 3600.00000 0 -12392149.926 2347314.816 22188315.590 10 0 59195 4500.00000 0 -14375883.113 564958.021 21079369.689 10 0 59195 5400.00000 0 -16360039.826 -965151.825 19561666.488 10 0 59195 6300.00000 0 -18280151.895 -2224064.839 17664545.748 10 0 59195 7200.00000 0 -20071027.730 -3205438.786 15424711.400 10 0 59195 8100.00000 0 -21669397.678 -3915558.697 12885531.039 10 0 59195 9000.00000 0 -23016500.974 -4372823.121 10096205.087 10 0 59195 9900.00000 0 -24060506.273 -4606718.733 7110820.796 10 0 59195 10800.00000 0 -24758664.206 -4656326.579 3987308.526 10 0 59195 11700.00000 0 -25079101.111 -4568422.998 786320.049 10 0 59195 12600.00000 0 -25002177.703 -4395255.569 -2429949.446 10 0 59195 13500.00000 0 -24521354.517 -4192088.473 -5598972.656 10 0 59195 14400.00000 0 -23643526.527 -4014621.725 -8659110.741 10 0 59195 15300.00000 0 -22388811.744 -3916394.330 -11550818.701 10 0 59195 16200.00000 0 -20789801.668 -3946282.381 -14217811.311 10 0 59195 17100.00000 0 -18890304.292 -4146199.225 -16608166.109 10 0 59195 18000.00000 0 -16743631.919 -4549096.336 -18675341.133 10 0 59195 18900.00000 0 -14410505.331 -5177350.762 -20379087.009 10 0 59195 19800.00000 0 -11956662.004 -6041608.631 -21686235.214 10 0 59195 20700.00000 0 -9450268.583 -7140134.718 -22571346.864 10 0 59195 21600.00000 0 -6959245.854 -8458696.602 -23017209.363 10 0 59195 22500.00000 0 -4548617.974 -9970989.290 -23015171.326 10 0 59195 23400.00000 0 -2277996.588 -11639583.165 -22565309.361 10 0 59195 24300.00000 0 -199304.464 -13417356.075 -21676423.724 10 0 59195 25200.00000 0 1645166.936 -15249349.837 -20365863.114 10 0 59195 26100.00000 0 3224285.678 -17074973.481 -18659182.252 10 0 59195 27000.00000 0 4519130.737 -18830460.899 -16589639.142 10 0 59195 27900.00000 0 5523524.030 -20451479.823 -14197541.988 10 0 59195 28800.00000 0 6244022.463 -21875782.508 -11529458.817 10 0 59195 29700.00000 0 6699372.221 -23045786.846 -8637305.489 10 0 59195 30600.00000 0 6919450.150 -23910979.446 -5577330.216 10 0 59195 31500.00000 0 6943738.668 -24430039.793 -2409014.883 10 0 59195 32400.00000 0 6819400.246 -24572596.390 806084.985 10 0 59195 33300.00000 0 6599034.287 -24320541.400 4005538.622 10 0 59195 34200.00000 0 6338212.333 -23668848.940 7127252.949 10 0 59195 35100.00000 0 6092896.702 -22625863.171 10110676.295 10 0 59195 36000.00000 0 5916852.183 -21213044.570 12897969.461 10 0 59195 36900.00000 0 5859160.358 -19464185.462 15435121.525 10 0 59195 37800.00000 0 5961941.483 -17424127.963 17672989.262 10 0 59195 38700.00000 0 6258379.822 -15147037.930 19568240.732 10 0 59195 39600.00000 0 6771135.375 -12694306.828 21084185.607 10 0 59195 40500.00000 0 7511208.661 -10132168.390 22191477.197 10 0 59195 41400.00000 0 8477306.286 -7529128.406 22868673.597 10 0 59195 42300.00000 0 9655734.197 -4953313.459 23102647.939 10 0 59195 43200.00000 0 11020823.724 -2469847.376 22888840.507 10 0 59195 44100.00000 0 12535873.563 -138362.877 22231348.169 10 0 59195 45000.00000 0 14154569.480 1989249.633 21142849.369 10 0 59195 45900.00000 0 15822823.827 3870764.005 19644365.754 10 0 59195 46800.00000 0 17480959.454 5475132.332 17764864.310 10 0 59195 47700.00000 0 19066148.060 6783528.859 15540706.732 10 0 59195 48600.00000 0 20515002.152 7789881.032 13014955.566 10 0 59195 49500.00000 0 21766212.944 8500866.044 10236549.364 10 0 59195 50400.00000 0 22763124.019 8935373.253 7259361.857 10 0 59195 51300.00000 0 23456132.756 9123455.303 4141162.533 10 0 59195 52200.00000 0 23804818.192 9104812.200 942498.222 10 0 59195 53100.00000 0 23779704.981 8926872.429 -2274482.699 10 0 59195 54000.00000 0 23363588.124 8642552.438 -5447240.519 10 0 59195 54900.00000 0 22552361.368 8307789.689 -8514064.894 10 0 59195 55800.00000 0 21355313.020 7978954.285 -11415281.500 10 0 59195 56700.00000 0 19794875.451 7710249.613 -14094420.447 10 0 59195 57600.00000 0 17905837.589 7551213.040 -16499322.849 10 0 59195 58500.00000 0 15734052.612 7544423.519 -18583163.223 10 0 59195 59400.00000 0 13334694.359 7723514.243 -20305367.172 10 0 59195 60300.00000 0 10770135.032 8111575.442 -21632406.094 10 0 59195 61200.00000 0 8107532.830 8720015.818 -22538453.085 10 0 59195 62100.00000 0 5416230.196 9547931.558 -23005887.259 10 0 59195 63000.00000 0 2765071.179 10582010.313 -23025636.684 10 0 59195 63900.00000 0 219749.796 11796974.756 -22597353.434 10 0 59195 64800.00000 0 -2159700.361 13156547.499 -21729417.545 10 0 59195 65700.00000 0 -4321171.093 14614897.097 -20438770.020 10 0 59195 66600.00000 0 -6222405.317 16118504.405 -18750578.365 10 0 59195 67500.00000 0 -7832504.243 17608370.867 -16697741.402 10 0 59195 68400.00000 0 -9132954.339 19022475.804 -14320243.184 10 0 59195 69300.00000 0 -10118132.631 20298379.176 -11664368.909 10 0 59195 70200.00000 0 -10795270.959 21375860.143 -8781798.409 10 0 59195 71100.00000 0 -11183882.604 22199480.280 -5728595.204 10 0 59195 72000.00000 0 -11314677.283 22720963.375 -2564111.331 10 0 59195 72900.00000 0 -11228012.081 22901291.665 650170.280 10 0 59195 73800.00000 0 -10971945.338 22712430.334 3851832.918 10 0 59195 74700.00000 0 -10599977.014 22138607.889 6978738.906 10 0 59195 75600.00000 0 -10168572.090 21177098.855 9970234.324 10 0 59195 76500.00000 0 -9734572.316 19838476.156 12768322.200 10 0 59195 77400.00000 0 -9352605.970 18146322.867 15318781.487 10 0 59195 78300.00000 0 -9072604.996 16136415.524 17572210.627 10 0 59195 79200.00000 0 -8937533.967 13855413.092 19484976.172 10 0 59195 80100.00000 0 -8981426.173 11359106.027 21020048.931 10 0 59195 81000.00000 0 -9227809.054 8710297.858 22147712.489 10 0 59195 81900.00000 0 -9688584.812 5976406.485 22846131.388 10 0 59195 82800.00000 0 -10363413.071 3226883.846 23101768.856 10 0 59195 83700.00000 0 -11239621.630 530559.689 22909646.672 10 0 59195 84600.00000 0 -12292649.560 -2046981.850 22273442.529 10 0 59195 85500.00000 0 -13487004.886 -4445885.452 21205422.977 10 0 59196 0.00000 0 -14777697.793 -6614266.017 19726212.950 10 0 59196 900.00000 0 -16112090.792 -8510116.418 17864405.331 10 0 59196 1800.00000 0 -17432089.242 -10102803.692 15656017.820 10 0 59196 2700.00000 0 -18676581.985 -11374091.168 13143805.598 10 0 59196 3600.00000 0 -19784030.482 -12318645.880 10376442.621 10 0 59196 4500.00000 0 -20695098.264 -12944009.179 7407586.063 10 0 59196 5400.00000 0 -21355210.422 -13270032.604 4294841.290 10 0 59196 6300.00000 0 -21716935.122 -13327802.653 1098646.825 10 0 59196 7200.00000 0 -21742086.128 -13158099.860 -2118899.164 10 0 59196 8100.00000 0 -21403456.680 -12809457.357 -5295247.933 10 0 59196 9000.00000 0 -20686110.262 -12335901.270 -8368620.921 10 0 59196 9900.00000 0 -19588172.376 -11794468.932 -11279217.644 10 0 59196 10800.00000 0 -18121088.427 -11242610.589 -13970386.521 10 0 59196 11700.00000 0 -16309335.373 -10735585.342 -16389734.978 10 0 59196 12600.00000 0 -14189598.027 -10323962.393 -18490156.407 10 0 59196 13500.00000 0 -11809443.514 -10051334.212 -20230753.386 10 0 59196 14400.00000 0 -9225548.607 -9952339.191 -21577638.723 10 0 59196 15300.00000 0 -6501553.663 -10051078.115 -22504598.433 10 0 59196 16200.00000 0 -3705632.422 -10359991.980 -22993603.682 10 0 59196 17100.00000 0 -907878.854 -10879249.011 -23035161.774 10 0 59196 18000.00000 0 1822380.116 -11596667.086 -22628499.495 10 0 59196 18900.00000 0 4419234.279 -12488175.027 -21781575.450 10 0 59196 19800.00000 0 6822692.218 -13518793.403 -20510921.354 10 0 59196 20700.00000 0 8980931.966 -14644093.445 -18841315.602 10 0 59196 21600.00000 0 10852207.273 -15812072.467 -16805295.682 10 0 59196 22500.00000 0 12406330.954 -16965366.534 -14442519.126 10 0 59196 23400.00000 0 13625674.615 -18043706.853 -11798985.763 10 0 59196 24300.00000 0 14505644.521 -18986516.010 -8926136.698 10 0 59196 25200.00000 0 15054615.399 -19735534.324 -5879847.943 10 0 59196 26100.00000 0 15293326.811 -20237365.275 -2719338.798 10 0 59196 27000.00000 0 15253769.344 -20445832.511 493983.303 10 0 59196 27900.00000 0 14977609.323 -20324048.945 3697718.562 10 0 59196 28800.00000 0 14514219.980 -19846110.763 6829687.441 10 0 59196 29700.00000 0 13918403.434 -18998345.076 9829136.330 10 0 59196 30600.00000 0 13247900.518 -17780058.821 12637912.807 10 0 59196 31500.00000 0 12560794.029 -16203757.562 15201587.736 10 0 59196 32400.00000 0 11912915.069 -14294824.992 17470502.940 10 0 59196 33300.00000 0 11355361.575 -12090676.355 19400724.839 10 0 59196 34200.00000 0 10932233.069 -9639420.812 20954886.388 10 0 59196 35100.00000 0 10678676.291 -6998087.862 22102902.075 10 0 59196 36000.00000 0 10619323.209 -4230490.697 22822543.141 10 0 59196 36900.00000 0 10767186.461 -1404814.179 23099862.765 10 0 59196 37800.00000 0 11123058.228 1408973.826 22929463.721 10 0 59196 38700.00000 0 11675437.753 4141781.949 22314603.670 10 0 59196 39600.00000 0 12400990.827 6728016.817 21267136.106 10 0 59196 40500.00000 0 13265522.647 9108059.371 19807287.715 10 0 59196 41400.00000 0 14225424.143 11230494.610 17963275.763 10 0 59196 42300.00000 0 15229532.142 13054003.134 15770771.969 10 0 59196 43200.00000 0 16221326.365 14548836.716 13272222.112 10 0 59196 44100.00000 0 17141371.870 15697816.966 10516033.340 10 0 59196 45000.00000 0 17929904.905 16496815.663 7555643.955 10 0 59196 45900.00000 0 18529453.626 16954696.854 4448492.787 10 0 59196 46800.00000 0 18887383.140 17092723.175 1254907.595 10 0 59196 47700.00000 0 18958256.987 16943451.354 -1963066.103 10 0 59196 48600.00000 0 18705914.494 16549163.499 -5142872.908 10 0 59196 49500.00000 0 18105175.000 15959900.504 -8222668.278 10 0 59196 50400.00000 0 17143095.531 15231180.933 -11142527.614 10 0 59196 51300.00000 0 15819727.236 14421502.281 -13845619.451 10 0 59196 52200.00000 0 14148336.991 13589730.831 -16279319.084 10 0 59196 53100.00000 0 12155083.358 12792491.215 -18396240.103 10 0 59196 54000.00000 0 9878159.090 12081666.713 -20155163.158 10 0 59196 54900.00000 0 7366434.982 11502116.647 -21521843.389 10 0 59196 55800.00000 0 4677661.069 11089707.853 -22469680.497 10 0 59196 56700.00000 0 1876299.656 10869743.780 -22980238.311 10 0 59196 57600.00000 0 -968919.764 10855857.769 -23043603.804 10 0 59196 58500.00000 0 -3787622.024 11049417.274 -22658578.685 10 0 59196 59400.00000 0 -6510475.253 11439464.066 -21832700.055 10 0 59196 60300.00000 0 -9071835.649 12003192.721 -20582089.948 10 0 59196 61200.00000 0 -11412238.177 12706946.864 -18931136.895 10 0 59196 62100.00000 0 -13480630.025 13507690.723 -16912015.956 10 0 59196 63000.00000 0 -15236254.487 14354893.446 -14564056.741 10 0 59196 63900.00000 0 -16650107.540 15192746.142 -11932972.042 10 0 59196 64800.00000 0 -17705907.589 15962617.551 -9069962.383 10 0 59196 65700.00000 0 -18400539.243 16605644.170 -6030714.268 10 0 59196 66600.00000 0 -18743954.134 17065345.003 -2874312.167 10 0 59196 67500.00000 0 -18758534.750 17290150.158 337914.165 10 0 59196 68400.00000 0 -18477949.739 17235736.260 3543584.091 10 0 59196 69300.00000 0 -17945550.507 16867069.945 6680478.530 10 0 59196 70200.00000 0 -17212378.054 16160073.213 9687746.569 10 0 59196 71100.00000 0 -16334865.117 15102840.409 12507082.774 10 0 59196 72000.00000 0 -15372331.166 13696355.657 15083852.382 10 0 59196 72900.00000 0 -14384376.068 11954680.511 17368143.039 10 0 59196 73800.00000 0 -13428282.033 9904603.671 19315723.379 10 0 59196 74700.00000 0 -12556532.692 7584767.030 20888890.697 10 0 59196 75600.00000 0 -11814552.863 5044303.828 22057192.342 10 0 59196 76500.00000 0 -11238763.040 2341044.635 22798007.901 10 0 59196 77400.00000 0 -10855029.409 -460635.350 23096981.801 10 0 59196 78300.00000 0 -10677573.620 -3292239.715 22948298.663 10 0 59196 79200.00000 0 -10708387.491 -6083746.041 22354796.514 10 0 59196 80100.00000 0 -10937176.996 -8766266.755 21327915.676 10 0 59196 81000.00000 0 -11341837.966 -11274666.891 19887484.006 10 0 59196 81900.00000 0 -11889444.026 -13550031.577 18061341.935 10 0 59196 82800.00000 0 -12537705.961 -15541881.851 15884813.633 10 0 59196 83700.00000 0 -13236842.005 -17210047.596 13400033.413 10 0 59196 84600.00000 0 -13931781.254 -18526120.169 10655139.207 10 0 59196 85500.00000 0 -14564608.051 -19474424.347 7703347.747 99